Regional Weather Roundup
Issued by NWS

Home | Current Version | Previous Version | Graphics & Text | Print | Product List | Glossary On
Versions: 1 2 3 4 5 6 7 8 9 10 11 12 13 14 15 16 17 18 19 20 21 22 23 24 25 26 27 28 29 30 31 32 33 34 35 36 37 38 39 40 41 42 43 44 45 46 47 48 49 50
555
ASUS44 KLIX 061301
RWRLA
LOUISIANA WEATHER ROUNDUP
NATIONAL WEATHER SERVICE NEW ORLEANS LA
700 AM CST FRI MAR 06 2015

NOTE: "FAIR" INDICATES FEW OR NO CLOUDS BELOW 12,000 FEET WITH NO
      SIGNIFICANT WEATHER AND/OR OBSTRUCTIONS TO VISIBILITY.
      SKY/WX - SKY CONDITION AND SIGNIFICANT WEATHER.
      TMP - AIR TEMPERATURE.    DP   - DEWPOINT TEMPERATURE.
      RH  - RELATIVE HUMIDITY.  PRES - PRESSURE.
      HX  - HEAT INDEX.         WCI  - WIND CHILL INDEX.

*  THESE STATIONS ARE NOT NWS OR FAA STATIONS AND ARE NOT UNDER
   NWS QUALITY CONTROL.

LAZ040-048-061>063-065-066-069-061400-
SOUTHEAST LOUISIANA

CITY           SKY/WX    TMP DP  RH WIND       PRES   REMARKS
N.O. AUDUBON   NOT AVBL
N.O. INTL ARPT PTCLDY    32  22  66 N15       30.48R WCI  22
N.O. LAKEFRONT CLEAR     34  23  64 N18       30.49R WCI  23
SLIDELL        PTCLDY    29  19  66 N16G23    30.47R WCI  17
BATON ROUGE    PTCLDY    26  15  63 N7        30.53R WCI  18
BOOTHVILLE     CLEAR     37  28  70 N10G21    30.42R WCI  30
BELLE CHASSE   PTCLDY    33  22  63 N10       30.46R WCI  25
BOGALUSA*        N/A     28  21  76 N8        30.52R WCI  20
GALLIANO*      SUNNY     35  28  74 N9        30.45S WCI  28
NEW ROADS*     NOT AVBL
GONZALES*      NOT AVBL
HAMMOND*       NOT AVBL
HOUMA*         PTCLDY    28  23  80 N12       30.46S WCI  18
PORT FOURCHON* SUNNY     36  27  69 N20       30.47S WCI  25

$$

LAZ041-044-053-054-061400-
SOUTHWEST LOUISIANA

CITY           SKY/WX    TMP DP  RH WIND       PRES   REMARKS
LAKE CHARLES   CLEAR     29  18  63 NE10      30.55S WCI  20
LAFAYETTE      CLEAR     29  14  53 N12       30.53R WCI  19
PATTERSON      FAIR      30  18  59 N14       30.50R WCI  20
SALT POINT       N/A     30  19  63 N9        30.48R WCI  22
NEW IBERIA     NOT AVBL
CHENAULT AIRPK PTCLDY    28  19  69 N12       30.56S WCI  18

$$

LAZ027-028-061400-
CENTRAL LOUISIANA

CITY           SKY/WX    TMP DP  RH WIND       PRES   REMARKS
FORT POLK      CLEAR     26  18  71 N7        30.56R WCI  18
ALEXANDRIA INT CLEAR     25  19  78 N6        30.58R WCI  18
ALEXANDRIA     CLEAR     27  17  66 CALM      30.58R

$$

LAZ001-002-061400-
NORTHWEST LOUISIANA

CITY           SKY/WX    TMP DP  RH WIND       PRES   REMARKS
SHREVEPORT     PTCLDY    24  21  88 CALM      30.60S
BARKSDALE AFB  CLEAR     24  22  91 CALM      30.61R
DTN SHREVEPORT CLEAR     23  20  88 CALM      30.61S

$$

LAZ014-016-061400-
NORTHEAST LOUISIANA

CITY           SKY/WX    TMP DP  RH WIND       PRES   REMARKS
MONROE         CLEAR     22  19  89 N3        30.62R
TALLULAH       CLEAR     25  15  66 N8        30.60R WCI  16

$$




USA.gov is the U.S. government's official web portal to all federal, state and local government web resources and services.